WP4NYS-13 Weather Reports


Display with metric or nautical units.
time (UTC)temp
F
wind
direction
speed
MPH
gust
MPH
rain 1hr
in
rain 24hr
in
rain mn
in
humidity
%
barometer
mb
20260504140933 73 53 2.0 3.0 0.00 0.00 0.00 46 1019.2
20260504140429 74 98 1.0 3.0 0.00 0.00 0.00 46 1019.3
20260504130354 69 187 2.0 3.0 0.00 0.00 0.00 61 1019.0
20260504120317 62 353 0.0 0.0 0.00 0.00 0.00 84 1019.0
20260504110242 57 353 0.0 0.0 0.00 0.00 0.00 91 1018.4
20260504100205 57 359 0.0 0.0 0.00 0.00 0.00 89 1017.9
20260504090128 57 359 0.0 0.0 0.00 0.00 0.00 86 1018.3
20260504081558 57 359 0.0 0.0 0.00 0.00 0.00 84 1018.3
20260504081054 57 359 0.0 0.0 0.00 0.00 0.00 84 1018.3
20260504080551 58 359 0.0 0.0 0.00 0.00 0.00 83 1018.5
20260504050403 60 13 0.0 0.0 0.00 0.00 0.00 77 1019.4
20260504045900 60 13 0.0 0.0 0.00 0.00 0.00 77 1019.4
20260504045355 61 13 0.0 0.0 0.00 0.00 0.00 77 1019.5
20260504044853 61 13 0.0 0.0 0.00 0.00 0.00 76 1019.7
20260504044350 61 13 0.0 0.0 0.00 0.00 0.00 76 1019.6
20260504043847 61 31 0.0 0.0 0.00 0.00 0.00 75 1019.7
20260504043344 61 31 0.0 0.0 0.00 0.00 0.00 76 1020.0
20260504042841 61 34 0.0 0.0 0.00 0.00 0.00 76 1019.8
20260504042337 61 34 0.0 0.0 0.00 0.00 0.00 75 1019.7
20260504041834 61 34 0.0 0.0 0.00 0.00 0.00 75 1019.7
20260504041330 62 34 0.0 0.0 0.00 0.00 0.00 74 1019.6
20260504040826 62 34 0.0 0.0 0.00 0.00 0.00 74 1019.5
20260504040324 62 34 0.0 0.0 0.00 0.00 0.00 74 1019.7
20260504035820 62 34 0.0 0.0 0.00 0.00 0.00 73 1019.7
20260504035318 63 34 0.0 0.0 0.00 0.00 0.00 72 1019.9
20260504034815 63 34 0.0 0.0 0.00 0.00 0.00 72 1019.5
20260504034312 63 34 0.0 0.0 0.00 0.00 0.00 71 1019.8
20260504033809 63 35 0.0 0.0 0.00 0.00 0.00 71 1019.9
20260504033307 63 35 0.0 0.0 0.00 0.00 0.00 70 1019.7
20260504032803 64 35 0.0 0.0 0.00 0.00 0.00 70 1019.7
20260504032300 64 35 0.0 0.0 0.00 0.00 0.00 69 1019.6
20260504031757 64 36 0.0 0.0 0.00 0.00 0.00 68 1019.5
20260504031255 65 36 0.0 0.0 0.00 0.00 0.00 68 1019.7
20260504030750 65 38 0.0 0.0 0.00 0.00 0.00 67 1019.4
20260504030248 65 38 0.0 0.0 0.00 0.00 0.00 66 1019.6
20260504025744 65 38 0.0 0.0 0.00 0.00 0.00 66 1019.4
20260504025241 65 102 0.0 0.0 0.00 0.00 0.00 66 1019.4
20260504024738 65 50 0.0 0.0 0.00 0.00 0.00 65 1019.2
20260504024234 66 100 0.0 0.0 0.00 0.00 0.00 65 1019.4
20260504023731 66 176 0.0 0.0 0.00 0.00 0.00 64 1019.3
20260504023227 66 145 0.0 1.0 0.00 0.00 0.00 64 1019.3
20260504022724 66 50 0.0 0.0 0.00 0.00 0.00 64 1019.3
20260504022220 66 104 0.0 0.0 0.00 0.00 0.00 63 1019.1
20260504021718 66 320 0.0 0.0 0.00 0.00 0.00 63 1019.2
20260504021214 67 320 0.0 0.0 0.00 0.00 0.00 62 1019.0
20260504020711 67 320 0.0 0.0 0.00 0.00 0.00 62 1018.9
20260504020207 67 320 0.0 0.0 0.00 0.00 0.00 61 1018.9
20260504015704 67 87 0.0 0.0 0.00 0.00 0.00 61 1019.0
20260504015200 67 40 0.0 0.0 0.00 0.00 0.00 61 1019.0
20260504014656 67 307 0.0 0.0 0.00 0.00 0.00 61 1018.6
20260504014153 68 307 0.0 0.0 0.00 0.00 0.00 61 1018.1
20260504013651 68 110 0.0 0.0 0.00 0.00 0.00 60 1018.3
20260504013148 68 7 0.0 0.0 0.00 0.00 0.00 60 1018.5
20260504012645 68 356 0.0 0.0 0.00 0.00 0.00 60 1018.0
20260504012143 69 155 0.0 0.0 0.00 0.00 0.00 59 1017.9
20260504011639 69 61 0.0 1.0 0.00 0.00 0.00 59 1017.7
20260504011136 69 111 0.0 0.0 0.00 0.00 0.00 59 1017.7
20260504010632 69 141 0.0 1.0 0.00 0.00 0.00 58 1017.5
20260504010127 69 105 0.0 0.0 0.00 0.00 0.00 58 1017.6
20260504005625 69 73 0.0 0.0 0.00 0.00 0.00 58 1017.6
20260504005122 70 124 0.0 0.0 0.00 0.00 0.00 57 1017.6
20260504004620 70 124 0.0 1.0 0.00 0.00 0.00 57 1017.7
20260504004117 70 93 0.0 1.0 0.00 0.00 0.00 57 1017.7
20260504003613 70 105 0.0 0.0 0.00 0.00 0.00 56 1017.7
20260504003109 71 169 0.0 0.0 0.00 0.00 0.00 56 1017.5
20260504002606 71 88 0.0 0.0 0.00 0.00 0.00 55 1017.4
20260504002104 71 41 0.0 0.0 0.00 0.00 0.00 55 1017.5
20260504001601 71 79 0.0 0.0 0.00 0.00 0.00 54 1017.5
20260504001057 72 64 0.0 0.0 0.00 0.00 0.00 54 1017.2
20260504000555 72 68 0.0 0.0 0.00 0.00 0.00 53 1017.2
20260504000052 72 62 0.0 1.0 0.00 0.00 0.00 52 1017.1
20260503235550 72 29 0.0 1.0 0.00 0.00 0.00 52 1017.2
20260503235047 73 109 1.0 2.0 0.00 0.00 0.00 51 1017.3
20260503234544 73 104 0.0 1.0 0.00 0.00 0.00 51 1017.3
20260503234043 73 121 0.0 1.0 0.00 0.00 0.00 50 1017.2
20260503233538 74 125 0.0 2.0 0.00 0.00 0.00 50 1017.2
20260503233035 74 144 1.0 2.0 0.00 0.00 0.00 49 1017.0
20260503232532 74 64 0.0 1.0 0.00 0.00 0.00 49 1017.1
20260503232029 75 80 1.0 2.0 0.00 0.00 0.00 48 1017.1
20260503231527 75 103 3.0 4.0 0.00 0.00 0.00 47 1017.2
20260503231024 76 89 1.0 1.0 0.00 0.00 0.00 47 1017.3
20260503230520 76 95 3.0 6.0 0.00 0.00 0.00 45 1017.2
20260503230018 76 65 1.0 3.0 0.00 0.00 0.00 45 1017.0
20260503225514 77 95 0.0 4.0 0.00 0.00 0.00 44 1016.9
20260503225009 77 105 1.0 1.0 0.00 0.00 0.00 45 1016.8
20260503224508 77 190 0.0 3.0 0.00 0.00 0.00 44 1016.8
20260503224005 78 104 2.0 3.0 0.00 0.00 0.00 42 1016.6
20260503223503 78 48 0.0 1.0 0.00 0.00 0.00 39 1016.5
20260503222958 79 5 0.0 1.0 0.00 0.00 0.00 37 1016.7
20260503222457 79 69 0.0 0.0 0.00 0.00 0.00 38 1016.8
20260503221954 79 190 0.0 2.0 0.00 0.00 0.00 38 1016.6
20260503221452 79 295 0.0 1.0 0.00 0.00 0.00 37 1016.6
20260503220949 79 165 0.0 2.0 0.00 0.00 0.00 37 1016.7
20260503220445 80 106 0.0 0.0 0.00 0.00 0.00 37 1016.8
20260503215942 80 80 1.0 2.0 0.00 0.00 0.00 37 1016.7
20260503215439 80 303 1.0 1.0 0.00 0.00 0.00 37 1016.8
20260503214937 80 119 0.0 1.0 0.00 0.00 0.00 36 1016.7
20260503214435 80 41 0.0 1.0 0.00 0.00 0.00 35 1016.9
20260503213932 80 295 0.0 0.0 0.00 0.00 0.00 35 1016.8
20260503213430 80 27 0.0 1.0 0.00 0.00 0.00 35 1016.8
20260503212926 80 106 0.0 1.0 0.00 0.00 0.00 35 1016.7
20260503212423 80 349 0.0 3.0 0.00 0.00 0.00 37 1016.7
20260503211921 80 3 0.0 2.0 0.00 0.00 0.00 35 1016.8
20260503211417 80 250 2.0 3.0 0.00 0.00 0.00 35 1016.8
20260503210913 80 50 1.0 1.0 0.00 0.00 0.00 37 1016.9
20260503210410 79 54 0.0 1.0 0.00 0.00 0.00 35 1016.7
20260503205910 80 22 1.0 2.0 0.00 0.00 0.00 35 1016.8
20260503205408 81 344 1.0 3.0 0.00 0.00 0.00 35 1016.7
20260503204904 81 2 2.0 2.0 0.00 0.00 0.00 35 1016.8
20260503204401 81 20 1.0 1.0 0.00 0.00 0.00 35 1016.9
20260503203858 81 290 2.0 2.0 0.00 0.00 0.00 35 1016.9
20260503203355 81 351 2.0 3.0 0.00 0.00 0.00 33 1017.1
20260503202852 80 34 1.0 2.0 0.00 0.00 0.00 35 1017.1
20260503202350 80 194 0.0 1.0 0.00 0.00 0.00 35 1017.2
20260503201849 81 314 2.0 3.0 0.00 0.00 0.00 34 1017.3
20260503201345 82 334 2.0 2.0 0.00 0.00 0.00 34 1017.5
20260503200843 81 260 1.0 1.0 0.00 0.00 0.00 34 1017.3
20260503200338 81 343 1.0 3.0 0.00 0.00 0.00 34 1017.4
20260503195836 81 30 0.0 0.0 0.00 0.00 0.00 34 1017.7
20260503195332 80 324 1.0 2.0 0.00 0.00 0.00 34 1017.5
20260503194830 80 34 0.0 1.0 0.00 0.00 0.00 35 1017.5
20260503194325 80 25 1.0 1.0 0.00 0.00 0.00 34 1017.9
20260503193822 79 251 1.0 2.0 0.00 0.00 0.00 35 1017.6
20260503193318 80 33 0.0 2.0 0.00 0.00 0.00 35 1017.9
20260503192814 81 77 0.0 1.0 0.00 0.00 0.00 35 1018.0
20260503192309 80 266 0.0 1.0 0.00 0.00 0.00 36 1017.9
20260503191806 80 358 2.0 2.0 0.00 0.00 0.00 35 1018.0
20260503191303 80 20 1.0 4.0 0.00 0.00 0.00 36 1018.3
20260503190800 80 145 2.0 4.0 0.00 0.00 0.00 37 1018.5
20260503190257 81 93 4.0 4.0 0.00 0.00 0.00 34 1018.4
20260503185754 80 321 0.0 1.0 0.00 0.00 0.00 36 1018.7
20260503185249 80 205 1.0 4.0 0.00 0.00 0.00 38 1018.7
20260503184744 79 296 0.0 1.0 0.00 0.00 0.00 37 1018.9
20260503184241 79 297 0.0 1.0 0.00 0.00 0.00 39 1018.8
20260503183737 79 292 1.0 3.0 0.00 0.00 0.00 39 1019.1
20260503183235 80 279 2.0 3.0 0.00 0.00 0.00 38 1019.1
20260503182732 80 292 0.0 2.0 0.00 0.00 0.00 38 1019.0
20260503182232 80 96 1.0 1.0 0.00 0.00 0.00 38 1019.0
20260503181728 80 244 1.0 3.0 0.00 0.00 0.00 39 1019.0
20260503181225 80 119 1.0 1.0 0.00 0.00 0.00 38 1019.1
20260503180721 78 95 1.0 3.0 0.00 0.00 0.00 38 1019.3
20260503180220 79 95 1.0 6.0 0.00 0.00 0.00 39 1019.2
20260503175715 79 38 0.0 2.0 0.00 0.00 0.00 39 1019.2
20260503175214 79 20 0.0 3.0 0.00 0.00 0.00 40 1019.2
20260503174709 79 114 1.0 2.0 0.00 0.00 0.00 39 1019.2
20260503174207 78 172 2.0 2.0 0.00 0.00 0.00 40 1019.2
20260503173702 78 31 0.0 2.0 0.00 0.00 0.00 42 1019.6
20260503173158 78 22 1.0 3.0 0.00 0.00 0.00 44 1019.5
20260503172655 78 91 1.0 4.0 0.00 0.00 0.00 45 1019.7
20260503172153 77 135 0.0 2.0 0.00 0.00 0.00 43 1019.5
20260503171649 78 112 1.0 4.0 0.00 0.00 0.00 44 1019.5
20260503171147 78 178 1.0 2.0 0.00 0.00 0.00 43 1019.6
20260503170643 77 121 1.0 3.0 0.00 0.00 0.00 44 1019.7
20260503170140 77 109 1.0 4.0 0.00 0.00 0.00 43 1019.8
20260503160107 74 156 1.0 2.0 0.00 0.00 0.00 52 1020.5
20260503150537 70 273 0.0 1.0 0.00 0.00 0.00 66 1020.2